Branson, MO

5:35 PM CDT on April 28, 2017 (GMT -0500)
Branson

Weather History for KBBG - October, 2012

Change the Weather History Date:

Wednesday, October 31, 2012

  Actual Average (KHRO) Record (KHRO)
Temperature  
Mean Temperature 50 °F -  
Max Temperature 62 °F 67 °F 85 °F (1950)
Min Temperature 37 °F 48 °F 21 °F (1993)
Degree Days  
Heating Degree Days 16    
Moisture  
Dew Point 34 °F    
Average Humidity 62    
Maximum Humidity 87    
Minimum Humidity 32    
Precipitation  
Precipitation 0.00 in - - ()
Sea Level Pressure  
Sea Level Pressure 30.01 in    
Wind  
Wind Speed 1 mph (NW)    
Max Wind Speed 9 mph    
Max Gust Speed -    
Visibility 10 miles    
Events      
Averages and records for this station are not official NWS values.
T = Trace of Precipitation, MM = Missing Value Source: NWS Daily Summary

Daily Weather History Graph

Daily Weather History Graph

Search for Another Location

Airport or City:

Trip Planner

Search our weather history database for the weather conditions in past years. The results will help you decide how hot, cold, wet, or windy it might be!

Date:

Astronomy

Oct. 31, 2012 Rise Set
Actual Time 7:35 AM CDT 6:16 PM CDT
Civil Twilight 7:08 AM CDT 6:43 PM CDT
Nautical Twilight 6:38 AM CDT 7:13 PM CDT
Astronomical Twilight 6:08 AM CDT 7:43 PM CDT
Moon 7:31 PM CDT (10/31) 9:14 AM CDT (10/31)
Length of Visible Light 11h 34m
Length of Day
10h 40m
Full, 97% of the Moon is Illuminated
Oct 31
Full
Nov 6
Last Quarter
Nov 13
New
Nov 20
First Quarter
Nov 28
Full

Hourly Weather History & Observations

Time (CDT) Temp. Windchill Dew Point Humidity Pressure Visibility Wind Dir Wind Speed Gust Speed Precip Events Conditions
12:15 AM 44.6 °F - 33.8 °F 66% 29.98 in 10.0 mi Calm Calm - N/A   Partly Cloudy
12:35 AM 42.8 °F - 33.8 °F 70% 29.98 in 10.0 mi Calm Calm - N/A   Partly Cloudy
12:55 AM 44.6 °F - 33.8 °F 66% 29.98 in 10.0 mi Calm Calm - N/A   Partly Cloudy
1:15 AM 42.8 °F - 33.8 °F 70% 29.98 in 10.0 mi Calm Calm - N/A   Partly Cloudy
1:35 AM 41.0 °F - 35.6 °F 81% 29.98 in 10.0 mi Calm Calm - N/A   Scattered Clouds
1:55 AM 41.0 °F - 35.6 °F 81% 29.98 in 10.0 mi Calm Calm - N/A   Mostly Cloudy
2:15 AM 39.2 °F - 35.6 °F 87% 29.98 in 10.0 mi Calm Calm - N/A   Mostly Cloudy
2:55 AM 42.8 °F 41.1 °F 33.8 °F 70% 29.99 in 7.0 mi NNE 3.5 mph - N/A   Scattered Clouds
3:15 AM 44.6 °F 43.1 °F 32.0 °F 61% 30.00 in 10.0 mi North 3.5 mph - N/A   Partly Cloudy
3:35 AM 42.8 °F - 32.0 °F 66% 30.00 in 10.0 mi Calm Calm - N/A   Mostly Cloudy
3:55 AM 41.0 °F - 33.8 °F 76% 29.99 in 10.0 mi Calm Calm - N/A   Overcast
4:15 AM 44.6 °F - 33.8 °F 66% 29.99 in 3.0 mi Calm Calm - N/A   Haze
4:35 AM 44.6 °F - 35.6 °F 71% 29.99 in 10.0 mi Calm Calm - N/A   Overcast
4:55 AM 42.8 °F - 35.6 °F 76% 29.99 in 10.0 mi Calm Calm - N/A   Overcast
5:15 AM 41.0 °F - 32.0 °F 70% 30.00 in 10.0 mi Calm Calm - N/A   Overcast
5:35 AM 41.0 °F - 32.0 °F 70% 30.00 in 3.0 mi Calm Calm - N/A   Haze
5:55 AM 41.0 °F - 32.0 °F 70% 30.01 in 10.0 mi Calm Calm - N/A   Overcast
6:15 AM 39.2 °F - 32.0 °F 75% 30.00 in 10.0 mi Calm Calm - N/A   Overcast
6:35 AM 39.2 °F - 32.0 °F 75% 30.00 in 10.0 mi Calm Calm - N/A   Overcast
6:47 AM 39.2 °F - 32.0 °F 75% 30.00 in 10.0 mi Calm Calm - N/A   Partly Cloudy
7:47 AM 37.4 °F - 32.0 °F 81% 30.01 in 10.0 mi Calm Calm - N/A   Scattered Clouds
8:48 AM 41.0 °F - 32.0 °F 70% 30.04 in 10.0 mi Calm Calm - N/A   Mostly Cloudy
9:50 AM 48.2 °F - 30.2 °F 50% 30.05 in 10.0 mi WNW 3.5 mph - N/A   Scattered Clouds
10:50 AM 51.8 °F - 26.6 °F 38% 30.05 in 10.0 mi NNW 4.6 mph - N/A   Scattered Clouds
11:45 AM 55.4 °F - 26.6 °F 33% 30.06 in 10.0 mi NNW 5.8 mph - N/A   Partly Cloudy
12:47 PM 59.0 °F - 32.0 °F 36% 30.03 in 10.0 mi NNW 8.1 mph - N/A   Partly Cloudy
1:55 PM 60.8 °F - 32.0 °F 34% 30.02 in 10.0 mi WNW 5.8 mph - N/A   Scattered Clouds
2:45 PM 62.6 °F - 32.0 °F 32% 30.01 in 10.0 mi NNW 5.8 mph - N/A   Scattered Clouds
3:56 PM 62.6 °F - 33.8 °F 34% 30.00 in 10.0 mi NNW 9.2 mph - N/A   Scattered Clouds
4:50 PM 62.6 °F - 33.8 °F 34% 30.00 in 10.0 mi WNW 5.8 mph - N/A   Mostly Cloudy
5:45 PM 60.8 °F - 33.8 °F 36% 30.00 in 10.0 mi WNW 3.5 mph - N/A   Mostly Cloudy
6:45 PM 55.4 °F - 35.6 °F 47% 30.00 in 10.0 mi NW 3.5 mph - N/A   Mostly Cloudy
7:45 PM 50.0 °F - 35.6 °F 58% 30.01 in 10.0 mi Calm Calm - N/A   Scattered Clouds
8:45 PM 50.0 °F - 35.6 °F 58% 30.02 in 10.0 mi NW 4.6 mph - N/A   Scattered Clouds
9:15 PM 50.0 °F - 35.6 °F 58% 30.03 in 10.0 mi NW 4.6 mph - N/A   Clear
9:35 PM 50.0 °F - 35.6 °F 58% 30.03 in 10.0 mi NW 5.8 mph - N/A   Clear
9:55 PM 50.0 °F - 35.6 °F 58% 30.03 in 10.0 mi NW 4.6 mph - N/A   Clear
10:15 PM 50.0 °F - 35.6 °F 58% 30.04 in 10.0 mi NW 4.6 mph - N/A   Clear
10:35 PM 50.0 °F - 35.6 °F 58% 30.04 in 10.0 mi NNW 3.5 mph - N/A   Clear
10:55 PM 46.4 °F - 35.6 °F 66% 30.05 in 10.0 mi Calm Calm - N/A   Clear
11:15 PM 46.4 °F - 35.6 °F 66% 30.05 in 10.0 mi Calm Calm - N/A   Clear
11:35 PM 44.6 °F - 35.6 °F 71% 30.04 in 10.0 mi Calm Calm - N/A   Clear
11:55 PM 44.6 °F - 35.6 °F 71% 30.04 in 10.0 mi Calm Calm - N/A   Clear